Lapse_Rate
6.8 6.5 6.5 6.5 6.5 6.5 6.5 6.5 6.5 6.5 6.5 6.5 6.5 6.5 6.5 6.9 7.1 7.0 7.3 7.4 7.6 7.8 8.3 8.6 8.3 7.5 7.6 6.7 6.3 5.4 4.8 5.7 4.9 5.0 3.5 2.5 2.4 2.8 3.3 1.9 1.8 1.6 1.1 1.1
6.5 6.5 6.5 6.5 6.5 6.5 6.5 6.5 6.5 6.5 6.5 6.5 6.5 6.5 6.5 6.5 6.7 7.0 7.2 7.3 7.5 7.8 8.1 8.3 8.6 8.2 7.6 7.5 6.8 6.8 6.7 6.2 5.3 5.3 4.1 3.5 2.9 2.9 2.8 2.2 1.7 1.8 1.6 1.1
6.5 6.5 6.6 6.5 6.5 6.5 6.5 6.5 6.5 6.5 6.5 6.5 6.5 6.5 6.5 6.5 6.9 7.2 7.3 7.6 7.7 7.7 8.1 8.7 8.4 8.7 7.6 7.9 7.2 7.1 7.1 6.4 6.1 5.3 5.5 5.4 6.1 5.8 4.5 2.6 1.9 1.3 1.7 1.7
6.5 6.6 6.5 6.5 6.5 6.5 6.5 6.5 6.5 6.5 6.5 6.5 6.5 6.5 6.5 6.5 6.5 6.5 7.0 7.4 7.6 7.8 8.5 8.7 8.5 8.1 8.5 7.0 7.5 6.9 6.5 6.5 6.5 5.3 5.8 3.8 6.0 4.7 3.5 2.2 1.4 1.4 1.4 1.6
6.5 6.5 6.5 6.5 6.5 6.5 6.5 6.5 6.5 6.5 6.5 6.5 6.5 6.5 6.5 6.5 6.5 6.5 6.6 7.3 7.7 8.3 8.7 8.6 8.4 9.0 8.9 8.1 7.8 6.6 6.0 5.9 6.7 4.9 6.0 6.3 6.7 4.6 3.8 3.2 2.2 1.5 1.2 1.4
6.5 6.8 6.5 6.5 6.5 6.5 6.5 6.5 6.5 6.5 6.5 6.5 6.5 6.5 6.5 6.5 6.5 6.5 6.7 7.3 7.8 7.9 7.7 7.5 8.0 8.2 8.6 8.3 7.2 6.6 6.1 5.8 5.8 5.5 6.1 5.8 5.1 6.0 6.1 3.2 3.0 1.0 1.2 1.3
6.5 6.5 6.5 6.7 6.5 6.5 6.5 6.5 6.5 6.5 6.5 6.5 6.5 6.5 6.5 6.5 6.5 6.5 6.5 7.4 7.5 7.5 7.5 7.2 7.6 7.1 7.4 7.4 7.4 6.7 6.2 5.6 4.8 4.9 5.0 5.5 6.2 6.5 5.9 3.1 2.6 1.4 2.1 1.6
6.5 6.5 6.5 6.5 6.5 6.5 6.5 6.5 6.5 6.5 6.5 6.5 6.5 6.5 6.5 6.5 7.0 7.2 7.4 7.5 7.7 7.4 7.6 7.5 7.6 7.5 6.8 5.7 7.3 5.4 6.4 5.1 4.3 4.6 4.3 4.5 4.9 6.3 6.7 4.8 4.0 3.5 4.1 2.2
6.5 6.5 6.5 6.5 6.5 6.5 6.5 6.5 6.5 6.5 6.5 6.5 6.5 6.5 6.5 6.5 6.5 6.8 7.0 7.2 7.0 7.1 7.1 7.4 6.6 7.2 7.2 4.3 3.3 4.7 5.7 5.1 4.9 4.9 4.4 4.8 5.6 7.2 7.5 6.4 6.9 5.4 4.3 3.6
6.5 6.5 6.5 6.5 6.6 6.6 6.5 6.5 6.5 6.5 6.5 6.5 6.5 6.5 6.5 6.5 6.5 6.5 6.5 6.8 7.1 7.1 7.2 6.8 6.8 7.0 7.2 6.2 2.4 1.1 2.9 3.2 3.8 6.0 7.0 6.6 7.1 7.1 6.6 6.8 6.9 6.8 6.3 3.9
6.5 6.5 6.5 6.5 6.5 6.5 6.5 6.5 6.5 6.5 6.5 6.5 6.5 6.5 6.5 6.5 6.5 6.5 6.6 7.3 7.2 7.1 7.0 7.0 6.5 6.7 6.7 6.5 3.8 1.5 1.2 1.4 1.1 1.3 3.3 5.9 5.8 5.8 6.1 6.2 6.3 6.2 5.4 4.8
6.5 6.5 6.5 6.5 6.5 6.5 6.5 6.5 6.5 6.5 6.5 6.5 6.5 6.5 6.5 6.5 6.6 6.8 6.9 7.3 7.2 7.3 6.8 6.8 6.1 5.1 6.8 5.8 5.7 3.5 1.6 0.5 1.0 1.0 0.1 1.2 1.9 3.4 4.5 4.5 3.2 2.8 3.0 3.8
6.5 6.5 6.5 6.5 6.5 6.5 6.5 6.5 6.5 6.5 6.5 6.5 6.5 6.5 6.5 6.8 6.7 7.1 7.0 7.3 7.2 7.4 7.1 6.8 5.9 4.2 6.2 6.5 5.8 5.1 3.0 1.4 -0.0 0.3 -0.9 -0.2 0.1 1.4 2.1 4.7 5.3 4.4 3.8 3.1
6.5 6.5 6.5 6.5 6.5 6.5 6.5 6.5 6.5 6.5 6.5 6.5 6.5 6.5 6.5 6.5 6.5 6.9 7.1 7.2 6.9 7.1 7.0 6.9 6.8 5.7 6.2 5.6 5.3 4.4 3.1 1.5 0.1 -1.5 -0.4 -0.5 -1.4 -0.5 0.5 0.5 1.6 2.9 3.0 2.4
6.5 6.5 6.5 6.5 6.5 6.5 6.5 6.5 6.5 6.5 6.5 6.5 6.5 6.5 6.5 6.5 6.5 7.0 7.1 7.4 7.5 7.3 7.7 7.1 6.9 6.7 6.1 5.3 4.8 4.2 3.4 1.1 -0.4 -1.5 -0.5 -0.1 -0.6 -0.4 -0.2 0.0 -0.2 0.6 2.8 3.4
6.5 6.5 6.5 6.5 6.5 6.5 6.5 6.5 6.5 6.5 6.5 6.5 6.5 6.5 6.5 6.9 7.1 7.1 7.3 7.3 7.4 7.5 7.8 7.7 6.9 6.5 6.6 6.3 5.9 4.0 4.7 3.7 2.3 1.2 0.6 0.2 0.0 0.2 -0.2 0.0 -0.4 -0.1 0.8 2.5
6.5 6.5 6.5 6.5 6.5 6.5 6.5 6.5 6.5 6.5 6.5 6.5 6.5 6.5 6.6 6.5 6.7 6.9 7.0 7.3 7.4 7.6 7.9 7.9 7.3 6.7 6.3 6.1 6.8 6.5 5.8 5.2 3.6 3.1 1.8 0.0 -0.7 -0.9 -1.1 -0.8 -0.5 -0.6 -0.1 1.2
6.5 6.5 6.5 6.5 6.5 6.5 6.5 6.5 6.5 6.5 6.5 6.5 6.5 6.5 6.6 6.8 7.2 6.9 7.7 7.3 7.6 7.8 8.0 8.0 8.2 8.0 7.1 5.9 6.1 6.7 6.1 5.7 5.2 4.4 3.6 1.9 0.6 0.3 -0.7 -0.7 -1.0 -1.3 -0.9 -0.8
6.6 6.5 6.5 6.5 6.5 6.5 6.5 6.5 6.5 6.5 6.5 6.5 6.5 6.5 6.9 7.2 7.2 7.1 7.7 7.9 7.9 8.1 8.3 8.3 8.4 8.4 7.9 6.4 6.5 6.5 5.8 5.5 4.8 4.1 3.6 2.9 2.1 1.5 -0.1 -1.8 -1.8 -1.5 -0.8 -0.8
6.5 6.5 6.5 6.5 6.5 6.5 6.5 6.5 7.0 6.7 6.5 6.7 6.8 6.7 6.8 7.0 6.5 6.5 7.5 8.0 8.3 8.5 8.5 8.4 8.6 8.6 7.6 6.6 6.2 5.7 6.2 5.1 4.2 3.6 3.0 2.9 2.5 2.0 0.6 -0.4 -0.9 -0.7 -0.7 -1.9
6.5 6.5 6.5 6.5 6.5 6.5 6.5 6.8 7.2 6.5 6.5 7.0 7.1 7.0 7.0 6.5 6.9 7.1 7.8 7.7 8.4 8.1 7.7 7.6 8.2 8.4 7.2 6.3 5.9 5.5 5.7 4.9 4.6 3.7 2.7 2.0 1.9 1.9 1.2 0.9 0.2 0.2 0.1 -0.3
6.5 6.5 6.5 6.5 6.5 6.5 6.9 6.7 6.5 6.7 7.3 7.3 7.2 7.4 7.2 7.3 7.5 7.7 7.8 7.5 7.4 7.1 6.4 6.6 7.9 7.8 7.0 6.1 5.7 5.2 4.7 5.5 4.7 3.6 2.8 2.2 1.2 1.1 1.1 0.9 0.9 0.9 1.0 0.5
6.5 6.5 6.5 6.5 6.5 6.8 7.1 7.0 6.8 7.2 7.3 7.4 7.2 7.7 7.2 7.2 7.3 7.7 7.8 7.7 6.9 7.0 6.6 6.5 7.5 7.8 6.7 6.2 5.8 4.8 4.9 4.8 4.8 3.6 3.5 3.4 3.4 1.5 1.0 0.2 0.4 0.4 0.6 0.3
6.5 6.8 6.5 6.5 6.5 6.7 7.1 7.3 7.3 7.1 7.4 7.6 7.4 7.3 7.7 7.4 7.3 7.1 7.7 7.6 6.9 6.1 6.0 6.7 6.8 7.6 6.8 6.2 5.8 5.3 4.8 4.7 4.6 4.0 4.4 4.8 4.2 3.5 2.7 2.1 1.3 0.9 0.6 0.6
6.6 6.6 6.5 6.5 6.6 7.0 7.3 7.3 6.8 6.8 7.1 7.4 6.6 7.0 7.1 7.6 6.7 6.5 6.6 6.7 6.4 5.8 5.3 6.1 6.6 6.6 6.2 6.1 5.9 6.0 5.3 4.7 4.7 4.7 4.4 4.3 4.5 4.4 4.4 3.0 2.4 2.0 1.8 2.0
6.8 6.5 6.5 6.5 6.5 6.6 7.0 6.7 6.5 6.9 6.5 6.6 6.7 6.5 6.7 7.2 6.8 6.7 6.6 6.2 6.1 5.8 5.4 5.2 5.7 6.2 6.0 6.0 6.2 6.0 5.6 4.9 4.2 4.5 4.8 4.2 4.7 4.2 4.5 4.7 4.5 3.5 2.8 2.2
Wind_Speed
4 3 4 6 5 4 1 3 10 15 11 11 16 27 24 28 17 19 17 16 17 20 26 25 26 23 20 21 20 20 15 16 13 13 13 12 13 13 11 11 14 16 17 18
3 4 4 7 7 5 3 7 6 7 5 13 18 28 22 21 12 11 14 13 18 24 27 26 25 25 21 21 21 20 18 15 17 14 14 13 14 12 12 11 12 15 16 18
3 6 4 4 3 7 6 3 4 9 11 13 14 14 3 12 13 16 13 14 22 25 28 32 26 23 24 21 20 21 20 16 18 20 12 10 10 6 9 11 11 15 16 16
5 2 2 5 2 2 5 3 10 14 12 5 6 8 9 12 20 20 21 24 25 28 32 31 31 26 23 24 19 21 20 19 17 19 16 18 15 15 13 15 14 13 17 16
3 4 3 3 1 2 5 12 15 13 11 6 3 5 7 18 17 25 26 26 27 28 31 34 28 27 23 23 17 19 19 19 17 19 20 18 19 15 11 11 15 15 15 16
2 0 2 2 2 1 7 7 6 1 2 3 2 4 11 11 19 25 29 29 27 25 28 26 26 25 16 16 16 18 18 19 16 20 23 23 23 17 12 14 12 12 12 12
2 1 2 2 3 3 7 5 3 1 2 4 4 8 10 13 18 23 29 31 27 23 25 22 25 24 23 14 17 16 18 19 17 21 22 22 21 19 19 17 14 14 11 10
6 4 4 1 1 2 2 3 1 3 4 9 10 4 5 14 22 25 26 23 25 26 24 25 26 24 22 21 14 11 15 15 16 19 20 20 20 13 14 16 14 12 12 14
4 2 1 1 1 3 2 1 2 2 5 4 5 6 10 24 27 29 26 21 21 24 24 25 26 27 24 23 20 15 1 8 11 16 16 17 17 16 15 15 14 11 13 10
4 4 1 1 1 1 2 0 1 0 3 5 6 9 9 26 31 29 23 18 22 24 25 23 22 26 23 21 19 21 17 13 11 1 12 13 15 12 10 10 13 16 14 14
4 2 3 1 3 5 2 2 1 2 2 3 6 3 10 21 26 24 21 16 17 20 23 21 20 24 23 21 20 18 16 16 14 12 8 7 7 7 9 10 11 11 10 12
2 3 3 4 1 4 2 4 3 1 1 5 6 5 20 21 21 20 21 16 17 20 20 21 21 24 24 23 20 19 17 15 13 14 14 13 12 7 2 5 6 7 7 6
7 2 2 2 2 0 3 3 3 3 3 9 4 4 18 20 21 19 19 16 15 18 22 21 21 23 20 20 19 18 17 16 16 18 17 13 16 9 11 4 7 9 10 8
6 4 5 5 2 3 3 5 4 3 3 5 10 16 19 20 19 20 20 16 17 17 18 19 19 20 18 19 19 20 19 17 17 18 17 14 17 13 10 9 8 3 4 6
3 5 4 6 9 5 9 10 5 5 8 6 7 14 12 18 15 13 15 19 20 21 19 19 19 18 18 19 19 21 20 20 19 18 15 15 14 13 12 13 11 10 3 5
0 4 4 3 8 9 8 7 6 6 6 9 8 11 16 15 14 13 18 19 21 20 18 19 18 17 17 18 20 20 17 18 15 15 16 15 14 12 11 11 12 11 10 5
5 5 4 2 2 3 5 7 5 4 5 3 4 6 14 16 16 9 15 18 20 20 19 17 17 16 16 17 16 15 16 16 17 15 15 15 15 15 14 13 12 11 9 7
7 6 3 2 2 3 2 4 3 3 3 2 7 10 11 14 15 5 15 16 18 19 20 19 15 15 15 15 15 15 15 15 16 16 16 16 14 13 12 12 11 11 8 9
2 4 3 2 2 1 2 4 1 2 3 3 8 11 12 14 12 1 15 15 15 17 16 16 16 16 15 16 15 15 16 15 16 17 17 16 15 14 13 13 12 10 9 8
5 4 1 3 2 4 1 4 1 5 3 2 7 10 13 13 11 10 16 16 16 16 15 16 16 15 15 17 16 15 16 15 16 15 14 14 13 13 13 12 11 10 8 9
6 3 6 5 3 2 3 1 7 2 1 6 6 8 9 7 5 9 12 13 14 15 16 16 15 14 15 16 16 16 16 17 15 13 13 14 14 13 13 11 11 11 9 9
6 7 4 3 3 4 3 4 3 2 1 3 5 6 6 7 8 11 11 12 13 15 15 15 13 13 14 15 15 16 16 15 14 13 14 14 14 11 10 13 11 11 10 10
3 3 4 5 2 3 3 2 5 3 2 1 4 7 7 7 7 9 10 10 11 13 12 13 12 13 14 15 15 16 15 14 12 13 13 13 13 13 11 12 12 10 10 9
1 2 2 2 2 3 7 6 5 3 3 2 1 4 6 7 7 8 9 9 10 10 12 12 12 13 13 14 14 14 13 13 11 12 11 10 11 11 12 9 9 10 10 9
1 4 4 2 3 4 5 6 7 4 2 1 2 3 6 5 5 7 7 9 9 9 9 10 11 12 13 13 13 14 14 13 12 11 10 10 9 10 9 10 10 10 12 12
4 5 3 3 1 1 2 8 7 6 5 4 3 4 6 4 4 5 5 6 7 9 9 9 10 11 12 12 12 12 13 13 12 10 9 8 8 7 7 7 7 17 18 23
Wind_Direction
17 84 110 101 82 118 100 290 291 291 288 302 285 286 298 292 284 272 276 292 304 309 303 295 288 280 262 262 261 258 235 223 205 197 194 190 199 194 201 194 191 199 193 189
54 132 158 110 99 82 360 318 300 304 213 322 298 289 288 279 293 290 306 322 319 320 320 309 298 275 267 252 254 252 245 223 207 202 199 202 197 200 198 192 190 194 198 189
164 155 111 128 87 18 321 240 292 281 309 270 302 290 57 320 324 332 332 316 318 325 322 309 306 276 260 247 243 251 256 237 209 205 193 189 189 175 193 191 191 198 197 194
113 116 122 119 87 27 307 227 301 298 328 315 6 293 337 339 336 342 340 335 329 323 326 319 313 288 252 250 232 244 245 240 218 200 191 187 194 190 201 195 194 193 191 194
122 157 139 103 309 181 259 309 291 294 293 304 205 256 294 325 344 341 340 334 328 324 331 327 314 301 259 249 226 233 239 235 219 198 198 194 200 207 190 192 190 188 191 195
88 319 139 134 311 282 323 306 317 180 189 245 169 2 304 346 346 342 338 334 329 332 328 332 343 334 302 256 232 231 230 224 208 199 202 197 203 199 190 185 189 185 188 191
49 32 343 41 359 357 354 349 348 212 241 273 194 318 260 328 355 348 342 338 328 345 338 337 347 344 337 314 239 231 225 230 202 197 199 199 203 198 200 188 190 182 182 187
161 201 171 94 76 296 338 351 58 307 305 301 305 219 291 359 354 348 345 341 347 346 344 342 352 349 346 349 355 235 224 216 194 193 197 195 198 201 202 194 191 190 196 196
148 170 180 125 159 172 143 35 113 225 263 279 271 281 276 354 351 348 345 349 350 346 350 351 356 350 353 351 351 5 193 209 205 203 193 193 195 201 204 195 195 190 189 188
155 122 222 44 98 144 244 13 192 105 319 299 282 287 353 352 347 344 340 358 357 351 347 358 359 353 350 353 355 10 19 36 43 177 201 189 193 192 185 179 185 184 189 184
126 118 152 58 199 186 161 174 136 248 211 275 303 328 18 6 347 337 338 15 354 355 352 355 354 358 355 356 6 10 12 25 36 29 22 134 138 162 175 183 189 183 177 188
158 128 179 227 237 246 199 166 157 139 218 252 271 285 18 8 350 352 359 2 358 360 355 351 358 3 356 358 2 11 10 21 30 39 31 45 53 44 111 162 155 140 139 137
169 124 134 103 120 95 213 182 142 243 224 241 269 273 360 358 347 356 356 349 349 356 358 355 358 5 351 354 360 7 13 15 25 33 27 30 41 33 31 356 189 170 169 157
124 145 181 200 162 131 228 200 264 187 235 290 268 311 339 350 339 351 351 346 352 1 358 355 356 353 350 358 360 5 8 12 21 32 26 22 31 28 8 6 11 131 111 89
141 187 186 252 254 239 262 265 237 200 242 248 311 312 346 343 334 344 341 345 354 0 1 358 353 350 350 359 1 6 5 9 13 22 17 22 35 31 15 15 6 22 85 171
356 169 166 257 245 225 240 237 206 246 254 266 289 305 5 334 336 340 351 350 351 355 358 353 352 355 357 356 3 4 1 9 11 17 11 17 26 26 21 16 16 19 17 357
156 150 164 236 150 228 256 209 189 231 239 259 288 339 339 337 339 343 359 351 347 350 352 355 352 349 355 358 1 2 4 2 16 13 10 14 15 19 16 16 21 19 10 1
150 154 164 256 247 212 106 110 153 247 246 290 305 327 339 329 326 355 14 351 346 349 348 352 351 353 357 357 357 3 9 15 18 16 12 13 14 18 16 16 11 9 10 21
143 145 150 223 247 99 165 194 266 257 214 355 324 332 334 334 321 109 10 355 351 350 348 348 345 351 359 5 3 6 11 18 21 15 11 9 9 10 13 16 9 3 17 26
150 83 165 180 223 228 149 149 143 172 251 316 339 336 336 342 348 342 354 353 351 355 353 349 348 352 3 6 6 11 12 18 21 14 9 12 11 12 14 13 9 8 21 36
139 165 213 214 234 268 141 76 137 249 34 325 347 339 337 348 345 335 349 353 355 354 355 355 352 355 2 4 8 15 11 14 9 11 14 17 18 16 13 14 17 17 25 40
161 166 182 171 194 243 154 147 203 89 260 299 328 336 340 348 350 347 354 357 356 356 358 359 355 358 4 7 7 13 10 3 8 13 19 21 21 20 20 23 20 22 27 37
184 186 173 205 189 119 158 154 142 151 224 280 317 338 355 354 0 354 351 360 358 360 358 357 355 359 8 10 13 11 359 0 13 22 22 21 26 29 28 32 30 29 26 29
141 161 180 210 130 183 180 154 143 179 204 264 326 338 360 360 10 3 358 359 4 2 356 354 355 3 11 12 13 10 2 3 22 26 26 23 27 32 34 35 40 41 35 32
180 153 148 266 227 166 164 168 157 156 141 122 68 20 3 6 27 11 2 4 6 359 359 355 356 360 3 8 14 14 13 17 25 27 26 21 24 28 41 47 43 42 42 43
191 177 167 230 228 145 114 152 142 133 116 91 68 23 8 5 32 20 16 16 11 6 2 358 358 1 360 6 8 3 6 14 19 25 20 22 23 23 32 36 50 51 51 44